CZ-4 DEB, 26208

Orbit data source: Space-Track

CZ-4 DEB, 26208 is space debris in SSO originally from a launch on Thu, 14 Oct 1999 UTC launched from the Taiyaun Space Center, China (TSC). Debris objects in space refer to the collection of defunct objects orbiting the Earth. Examples of debris include non-operational satellites, rocket bodies, and fragments generated from explosions, collisions, or faulty payload assembly.

Loading next visibility...
Identifier
26208, 1999-057CW
Orbit
SSO
Country
Flag of CNCN / PRC
Related business
Manufacturer
Unknown
Mission
Spacecraft
Bus & Motor
Unknown
Mass
Unknown
Launch date (UTC)
1999-10-14 (26 years ago)
Launch vehicle
Unknown
Launch site
Taiyaun Space Center, China (TSC)
Object type
Payload
Rocket body
Debris
Shape & HBR
Unknown shape, 0.1 m
Radar Cross Section
Small (<0.1 m²)

Expand to show TLE details & history
Last TLE update: 1 day ago

TLE from 1 day ago
0 CZ-4 DEB
1 26208U 99057CW  25349.87060019  .00001148  00000-0  27167-3 0  9992
2 26208  98.5211 319.6936 0069604 335.5164  82.1784 14.54670519360703
Epoch: 2025-12-15T20:53Z
TLE epoch observation values (Epoch: 2025-12-15T20:53:39.856Z)
Latitude
57.56957°
Longitude
-92.05038°
Altitude
713.72 km
Speed
7.508 km/s
True Right ascension
20h 24m 30s
True Declination
57° 24' 46"
Sunlit
Object was in daylight at epoch
Visualization orbit readout
Latitude
Unknown
Longitude
Unknown
Altitude
Unknown
Speed
Unknown
Apparent Right ascension
Unknown
Apparent Declination
Unknown
Sunlit
N/A
Visualization observer readout
Local Sidereal Time
21:38:46
Azimuth
Unknown
Elevation
Unknown
Doppler factor
Unknown
Orbital elements
Apogee altitude
756.857 km
Perigee altitude
658.219 km
Semi-major axis
7,085.675 km
Eccentricity
0.00696
Inclination
98.5211°
RAAN
319.6936°
Arg. of periapsis
335.5164°
True anomaly
82.96949°
Mean anomaly
82.1784°
Eccentric anomaly
82.57386°
Mean motion
3.63891 °/min
Orbital period
98.93 mins
BSTAR
0.00027167
Loading maneuver chart data...
Computing Atmospheric mass density...
Loading historical data...
Loading historical data...
Loading historical data...
Loading historical data...
Loading historical data...
Loading historical data...
Loading historical data...

Documentation

Showing up to 5 results
|